Terminal Aerodrome Forecast
Issued by NWS Jackson, MS

Home | Current Version | Previous Version | Text Only | Print | Product List | Glossary On
Versions: 1 2 3 4 5 6 7 8 9 10 11 12 13
000
FTUS44 KMEG 270540
TAFTUP
TAF
KTUP 270540Z 2706/2806 34004KT P6SM SCT100
     FM270800 36004KT P6SM BKN120
     FM271200 05006KT P6SM SCT120
     FM280000 09003KT P6SM SKC=

USA.gov is the U.S. government's official web portal to all federal, state and local government web resources and services.